Regional Weather Roundup
Issued by NWS

Home | Current Version | Previous Version | Text Only | Print | Product List | Glossary On
Versions: 1 2 3 4 5 6 7 8 9 10 11 12 13 14 15 16 17 18 19 20 21 22 23 24 25 26 27 28 29 30 31 32 33 34 35 36 37 38 39 40 41 42 43 44 45 46 47 48 49 50
000
ASUS45 KBOI 190910
RWRID
WEATHER ROUNDUP FOR IDAHO
NATIONAL WEATHER SERVICE BOISE ID
200 AM MST FRI DEC 19 2014

NOTE: "FAIR" INDICATES FEW OR NO CLOUDS BELOW 12000 FEET
WITH NO SIGNIFICANT WEATHER AND/OR OBSTRUCTIONS TO VISIBILITY

IDZ012-014-191000-
SOUTHWEST IDAHO


CITY           SKY/WX    TMP DP  RH WIND       PRES   REMARKS
BOISE          CLOUDY    43  32  65 SE9       30.06F
CALDWELL       CLOUDY    43  28  56 E10G21    30.07S
MOUNTAIN HOME  CLOUDY    36  31  81 E16       30.07F WCI  27
$$

IDZ016-017-191000-
SOUTHCENTRAL IDAHO


CITY           SKY/WX    TMP DP  RH WIND       PRES   REMARKS
BURLEY         CLOUDY    38  27  64 S13       30.10F WCI  30
JEROME         CLOUDY    36  28  73 E8        30.10F WCI  30
TWIN FALLS     CLOUDY    41  27  57 S12       30.09F
$$

IDZ019>023-191000-
SOUTHEAST IDAHO


CITY           SKY/WX    TMP DP  RH WIND       PRES   REMARKS
IDAHO FALLS    CLOUDY    32  29  88 SE3       30.13S
POCATELLO      CLOUDY    38  28  67 S14       30.13S WCI  30
REXBURG        CLOUDY    32  29  88 S3        30.12S
$$

IDZ006-010-011-018-031-032-191000-
CENTRAL IDAHO MOUNTAINS


CITY           SKY/WX    TMP DP  RH WIND       PRES   REMARKS
MCCALL         LGT SNOW  32  31  96 E3        30.02F FOG
HAILEY         CLOUDY    32  30  93 NW6       30.11F WCI  26
STANLEY          N/A     32  24  72 S7        30.05R WCI  26
SALMON         CLOUDY    27  21  80 SE3       30.07S
CHALLIS        CLOUDY    26  23  88 CALM      30.07S
$$

IDZ002-004-006-007-026-191000-
NORTHERN IDAHO


CITY           SKY/WX    TMP DP  RH WIND       PRES   REMARKS
LEWISTON       CLOUDY    43  37  79 E13       29.94S
LOWELL           N/A     37  35  92 CALM      30.05F
COEUR D`ALENE  CLOUDY    37  34  87 NE5       29.92F WCI  34
MULLAN PASS    CLOUDY    30  27  88 MISG      29.89F FOG
$$


USA.gov is the U.S. government's official web portal to all federal, state and local government web resources and services.